Location: Santa Giusta
(39.8800°N, 8.6069°E)
Time: 16:52:10
(UTC+00:00)

Cosmos 1745 Rocket - Pass Details

Date: 02 February 2023
Orbit: 952 x 998 km, 83.0° (Epoch: 30 March)

Event Time Altitude Azimuth Distance (km) Brightness Sun altitude
Rises 18:50:43 0° 352° (N) 3,691 7.1 -24.2°
Reaches altitude 10° 18:53:15 10° 353° (N) 2,733 6.4 -24.7°
Maximum altitude 18:59:32 89° 85° (E) 973 3.9 -25.9°
Drops below altitude 10° 19:05:41 10° 174° (S) 2,684 6.2 -27.1°
Sets 19:08:09 0° 175° (S) 3,621 6.9 -27.5°
